Lake Allatoona Weather Center

Moon Phase Calendar



Lake Allatoona Water Level
Online Cameras

 


      

Current Conditions in Acworth
6/30/2022 3:56:08 AM

71°F
Feels Like 72
Clear
Humidity
95%
Pressure
30.18"
Wind
0
Dew Point
69°F
UV Index
0/10 (Low)
Visibility
6 mi

Hourly Forecast

Date & Time Thu, Jun 30
3:00 AM
Thu, Jun 30
4:00 AM
Thu, Jun 30
5:00 AM
Thu, Jun 30
6:00 AM
Thu, Jun 30
7:00 AM
Thu, Jun 30
8:00 AM
Thu, Jun 30
9:00 AM
Thu, Jun 30
10:00 AM
Thu, Jun 30
11:00 AM
Thu, Jun 30
12:00 PM
Thu, Jun 30
1:00 PM
Thu, Jun 30
2:00 PM
Thu, Jun 30
3:00 PM
Thu, Jun 30
4:00 PM
Thu, Jun 30
5:00 PM
Thu, Jun 30
6:00 PM
Thu, Jun 30
7:00 PM
Thu, Jun 30
8:00 PM
Thu, Jun 30
9:00 PM
Thu, Jun 30
10:00 PM
Thu, Jun 30
11:00 PM
Fri, Jul 1
12:00 AM
Fri, Jul 1
1:00 AM
Fri, Jul 1
2:00 AM
Fri, Jul 1
3:00 AM
Fri, Jul 1
4:00 AM
Fri, Jul 1
5:00 AM
Fri, Jul 1
6:00 AM
Fri, Jul 1
7:00 AM
Fri, Jul 1
8:00 AM
Fri, Jul 1
9:00 AM
Fri, Jul 1
10:00 AM
Fri, Jul 1
11:00 AM
Fri, Jul 1
12:00 PM
Fri, Jul 1
1:00 PM
Fri, Jul 1
2:00 PM
Fri, Jul 1
3:00 PM
Fri, Jul 1
4:00 PM
Fri, Jul 1
5:00 PM
Fri, Jul 1
6:00 PM
Fri, Jul 1
7:00 PM
Fri, Jul 1
8:00 PM
Fri, Jul 1
9:00 PM
Fri, Jul 1
10:00 PM
Fri, Jul 1
11:00 PM
Sat, Jul 2
12:00 AM
Sat, Jul 2
1:00 AM
Sat, Jul 2
2:00 AM
Condition
Clouds

Clear

Clouds

Clouds

Clouds

Clouds

Clouds

Clouds

Clouds

Clouds

Rain

Rain

Clouds

Clouds

Clouds

Clouds

Clouds

Clouds

Clouds

Clouds

Rain

Rain

Clouds

Clouds

Clouds

Clouds

Rain

Rain

Rain

Rain

Clouds

Clouds

Rain

Rain

Rain

Rain

Rain

Clouds

Clouds

Clouds

Clouds

Rain

Clouds

Clear

Clear

Clear

Clear

Clear
Temperature 71°F71°F71°F70°F70°F71°F73°F77°F81°F85°F86°F88°F87°F85°F85°F85°F83°F80°F79°F78°F76°F73°F73°F72°F72°F72°F71°F70°F71°F72°F74°F76°F78°F79°F79°F78°F79°F83°F84°F84°F83°F79°F75°F74°F72°F72°F71°F71°F
Feels Like 72°F72°F72°F71°F71°F72°F74°F78°F84°F87°F89°F90°F89°F88°F88°F88°F86°F82°F79°F78°F76°F74°F74°F74°F73°F73°F72°F71°F72°F73°F75°F77°F79°F79°F79°F79°F79°F86°F87°F87°F86°F79°F76°F75°F73°F73°F72°F72°F
Cloudiness 20%0%20%40%60%80%100%97%98%98%98%98%100%100%100%100%100%100%100%100%100%100%100%100%100%99%99%99%100%100%100%100%91%93%93%94%100%84%77%68%60%53%11%8%8%8%8%8%
Visibility 6 mi6 mi6 mi6 mi6 mi6 mi6 mi6 mi6 mi6 mi6 mi6 mi6 mi6 mi6 mi6 mi6 mi6 mi6 mi6 mi6 mi6 mi6 mi6 mi6 mi6 mi6 mi6 mi6 mi6 mi6 mi6 mi6 mi6 mi6 mi6 mi6 mi6 mi6 mi6 mi6 mi6 mi6 mi6 mi6 mi6 mi6 mi6 mi
Precipitation 0%0%0%0%0%0%0%0%0%9%25%36%33%33%30%25%29%29%20%35%45%70%83%75%10%10%38%22%24%38%19%38%70%88%96%94%79%67%72%64%53%58%14%12%28%32%28%28%
Humidity 96%95%96%96%96%93%86%76%64%55%53%50%49%55%56%54%61%65%66%68%75%84%86%87%87%86%91%92%92%91%87%82%76%77%79%83%80%63%58%56%58%72%79%82%85%88%90%91%
Dew Point 70°F69°F69°F69°F68°F69°F68°F68°F67°F67°F66°F66°F65°F67°F67°F67°F67°F67°F66°F66°F67°F67°F68°F68°F68°F67°F67°F67°F68°F68°F69°F69°F69°F70°F71°F72°F72°F68°F67°F67°F67°F69°F68°F67°F67°F68°F68°F67°F
Pressure 30.18"30.18"30.18"30.18"30.21"30.21"30.21"30.21"30.21"30.18"30.18"30.15"30.12"30.09"30.09"30.09"30.09"30.12"30.09"30.12"30.15"30.15"30.15"30.12"30.12"30.09"30.09"30.12"30.12"30.12"30.15"30.15"30.15"30.12"30.12"30.12"30.09"30.09"30.06"30.06"30.06"30.06"30.06"30.06"30.09"30.09"30.09"30.06"
Wind Speed 2.8 mph2.8 mph2.9 mph3 mph3.4 mph4.1 mph4.9 mph4.9 mph4.9 mph5.2 mph5.3 mph4.5 mph3.8 mph1.3 mph3 mph5.2 mph4.4 mph4.1 mph4.3 mph2.3 mph2.1 mph2.7 mph2.9 mph3.1 mph4.3 mph4.1 mph4.4 mph4.4 mph3.9 mph3.8 mph4.2 mph4.8 mph4.8 mph5.5 mph4.7 mph3.4 mph3.5 mph5.5 mph5.4 mph4.3 mph3.6 mph3.4 mph2.1 mph3 mph3.8 mph2.9 mph2.6 mph2.1 mph
Wind
Direction
101°
E
88°
E
89°
E
94°
E
90°
E
93°
E
100°
E
106°
ESE
113°
ESE
120°
ESE
125°
SE
153°
SSE
187°
S
167°
SSE
92°
E
98°
E
103°
ESE
106°
ESE
111°
ESE
92°
E
20°
NNE
354°
N
31°
NNE
42°
NE
69°
ENE
83°
E
91°
E
88°
E
96°
E
91°
E
95°
E
95°
E
100°
E
115°
ESE
124°
SE
136°
SE
157°
SSE
163°
SSE
162°
SSE
152°
SSE
149°
SSE
134°
SE
135°
SE
137°
SE
123°
ESE
110°
ESE
127°
SE
138°
SE

Daily Forecast

Date High Low Precip. Humidity
Today
Jun 30

Rain
88 °F
70 °F
96%
53%
Friday
Jul 1

Rain
84 °F
70 °F
96%
79%
Saturday
Jul 2

Rain
91 °F
69 °F
43%
44%
Sunday
Jul 3

Clouds
90 °F
76 °F
17%
54%
Monday
Jul 4

Clouds
94 °F
75 °F
13%
41%
Tuesday
Jul 5

Rain
96 °F
76 °F
38%
40%
Wednesday
Jul 6

Rain
94 °F
74 °F
94%
44%
Thursday
Jul 7

Rain
93 °F
73 °F
89%
44%
Friday
Jul 8

Rain
96 °F
74 °F
56%
38%
Saturday
Jul 9

Rain
82 °F
72 °F
96%
71%
Sunday
Jul 10

Rain
90 °F
72 °F
74%
49%
Monday
Jul 11

Rain
96 °F
72 °F
37%
39%
Tuesday
Jul 12

Rain
94 °F
73 °F
70%
38%
Wednesday
Jul 13

Rain
93 °F
75 °F
67%
46%
Thursday
Jul 14

Rain
93 °F
72 °F
90%
44%
Friday
Jul 15

Rain
81 °F
72 °F
97%
75%

Temperature 8-14 Day Outlook



Precipitation 8-14 Day Outlook






About Us
Contact Us
Site Map
Search Site
Advertise With Us
   
Allatoona.USLakes.info
THE LAKE ALLATOONA WEBSITE

Copyright 2022, Lakes Online
Privacy    |    Legal